Location: Bright Sky Observatory
(40.7821°N, 74.2425°W)
Time: 13:10:35
(UTC-04:00)

Daily predictions for brighter satellites

Satellite Brightness Start Highest point End
(mag) Time Altitude Azimuth Time Altitude Azimuth Time Altitude Azimuth
Okean 3 Rocket 4.4 21:02:02 10° SSE 21:06:04 33° E 21:10:05 10° NNE
Cosmos 2221 3.4 21:03:14 10° N 21:07:14 34° ENE 21:11:14 10° SE
Envisat 3.3 21:05:00 10° S 21:10:04 71° WSW 21:15:09 10° NNW
Meteor 1-29 3.0 21:08:04 10° NNE 21:11:28 62° ESE 21:14:52 10° S
USA 186 4.0 21:17:13 10° SW 21:18:45 15° W 21:20:15 10° NW
Cosmos 1140 Rocket 3.6 21:16:24 10° SSW 21:21:34 84° WNW 21:26:46 10° NNE
Cosmos 2082 4.2 21:16:11 10° SSW 21:21:45 66° WNW 21:27:23 10° NNE
USA 32 4.0 21:16:46 10° S 21:21:59 76° E 21:27:14 10° N
SAR-Lupe-1 4.0 21:19:09 10° SSE 21:22:43 76° ENE 21:26:19 10° N
Cosmos 1570 Rocket 4.5 21:18:18 10° N 21:23:28 49° ENE 21:28:16 11° SE
Cosmos 1242 Rocket 3.6 21:22:07 10° N 21:25:29 31° ENE 21:28:21 13° SE
Cosmos 2297 Rocket 2.8 21:22:49 10° SW 21:28:24 62° WNW 21:34:03 10° NNE
USA 245 4.5 21:26:12 12° ESE 21:28:36 25° ENE 21:31:52 10° N
Resurs 01 Rocket 4.1 21:26:01 10° SW 21:29:13 20° W 21:32:26 10° NW
Cosmos 1939 Rocket 3.9 21:29:16 10° S 21:33:04 44° W 21:36:59 10° NNW
H-2A ROCKET BODY 3.8 21:35:18 12° SE 21:35:18 12° SE 21:38:12 10° ESE
Cosmos 1867 3.7 21:30:53 10° SSW 21:36:08 53° ESE 21:41:27 10° NE
Cosmos 2100 Rocket 4.1 21:33:04 10° N 21:39:21 64° E 21:45:23 11° SSE
Cosmos 1459 Rocket 4.2 21:33:09 10° N 21:39:24 59° E 21:45:04 12° SSE
Cosmos 2061 Rocket 4.3 21:33:50 10° N 21:40:05 55° E 21:45:43 13° SSE
MetOp-B 4.2 21:35:50 11° SSE 21:40:51 64° ENE 21:46:10 10° N
Cosmos 2263 Rocket 4.0 21:40:06 11° ESE 21:41:11 11° E 21:42:53 10° ENE
H-2A R/B 4.3 21:41:19 10° E 21:42:42 11° ENE 21:44:03 10° NE
Cosmos 1340 Rocket 3.5 21:40:23 10° SSW 21:44:19 56° WNW 21:48:20 10° N
Cosmos 1300 4.3 21:45:21 10° NNE 21:48:18 21° ENE 21:50:00 16° ESE
ATLAS 5 CENTAUR R/B 1.8 21:44:23 10° SW 21:49:01 83° NW 21:54:04 10° NNE
Cosmos 2173 Rocket 4.0 21:46:25 10° N 21:52:35 74° E 21:58:07 13° SSE
SPOT 5 3.1 21:49:06 16° SSE 21:52:47 59° ENE 21:57:45 10° N
Cosmos 1850 Rocket 4.1 21:48:05 10° SSW 21:53:14 77° WNW 21:58:28 10° NNE
Lacrosse 5 3.0 21:50:07 10° NNW 21:54:49 37° NE 21:58:58 13° E
YAOGAN 6 4.1 21:51:55 10° SSW 21:55:14 33° W 21:58:36 10° NNW
Cosmos 2084 3.2 21:51:20 10° SW 21:55:22 90° NNW 21:59:13 10° NE
Helios 1B rocket 4.5 21:53:13 10° N 21:56:51 30° WNW 22:00:29 10° SW
Cosmos 2237 Rocket 3.9 21:52:27 10° NW 21:57:08 28° WSW 22:01:48 10° SSW
Cosmos 1726 3.0 21:53:51 10° NNE 21:57:13 33° ENE 21:58:49 22° ESE
USA 234 3.2 21:52:06 10° NE 21:58:39 73° SE 22:05:10 10° SW
Cosmos 371 Rocket 4.4 21:58:48 10° N 22:03:04 30° ENE 22:05:42 18° ESE
CZ-3B R/B 3.9 22:00:11 10° SW 22:03:11 84° SE 22:13:35 10° NE
Cosmos 1603 4.2 21:58:20 10° NNW 22:03:49 48° ENE 22:07:25 21° SE
H-2A R/B 2.4 22:00:47 19° SE 22:04:24 55° ENE 22:09:41 10° N
ERS-1 Rocket 3.5 22:01:42 10° S 22:06:33 55° W 22:11:31 10° NNW
Atlas Centaur 2 3.1 22:05:05 10° SW 22:06:40 13° SSW 22:06:40 13° SSW
Cosmos 1802 Rocket 3.9 22:05:04 10° N 22:11:14 88° E 22:16:08 17° S
Abrixas rocket 4.1 22:09:20 10° NW 22:12:08 26° NNE 22:14:55 10° ENE
Cosmos 1818 3.8 22:07:19 10° NW 22:12:41 64° WSW 22:16:16 21° SSE
Cosmos 1725 Rocket 4.2 22:07:54 10° N 22:14:02 54° ENE 22:17:52 23° SSE
Cosmos 1674 3.7 22:13:20 10° SSW 22:16:58 45° W 22:20:36 10° N
Cosmos 1908 4.1 22:13:26 10° NNW 22:17:11 46° W 22:20:03 16° SSW
SL-16 R/B 3.1 22:15:28 10° NW 22:20:48 43° WSW 22:25:10 15° S
Cosmos 1943 4.2 22:15:54 10° N 22:21:02 34° ENE 22:24:10 20° ESE
Cosmos 1455 4.5 22:20:33 10° NE 22:22:09 12° ENE 22:22:49 12° E
Cosmos 220 Rocket 4.4 22:20:53 28° SSE 22:22:46 45° ESE 22:26:59 10° NNE
Landsat 7 4.0 22:20:56 27° SE 22:23:19 56° ENE 22:28:00 10° N
ARGOS 3.4 22:20:18 18° S 22:24:25 65° WSW 22:29:49 10° NNW
Cosmos 1408 Rocket 3.8 22:23:36 14° SSW 22:27:11 67° W 22:31:30 10° N
KORONAS-FOTON 4.5 22:24:12 13° SSW 22:27:27 52° W 22:31:11 10° N
Tiangong 1 1.4 22:33:13 10° W 22:35:57 53° N 22:36:46 36° NE
DMSP B5D2-2 4.0 22:31:55 10° NNE 22:37:09 71° ESE 22:40:08 26° S
Cosmos 1864 Rocket 4.5 22:31:24 10° N 22:37:48 83° E 22:41:31 27° S
Terra 2.1 22:36:22 33° SE 22:38:16 56° ENE 22:42:56 10° N
Cosmos 2058 3.5 22:38:52 36° ESE 22:39:33 38° E 22:43:28 10° NNE
Cosmos 1703 4.2 22:40:50 31° E 22:41:02 31° E 22:44:34 10° NNE
Cosmos 2016 Rocket 4.3 22:37:00 10° NNW 22:43:10 63° W 22:47:31 20° SSW
Meteor 1-11 4.4 22:40:37 30° SSE 22:43:27 59° E 22:49:09 10° NNE
Cosmos 1356 3.9 22:44:13 43° E 22:44:13 43° E 22:47:30 10° NNE
Cosmos 1500 Rocket 3.5 22:45:14 39° SSE 22:46:45 69° E 22:51:12 10° NNE
Cosmos 332 Rocket 3.9 22:47:47 10° NNW 22:52:41 73° WSW 22:54:33 38° S
ERBS 3.1 22:50:54 10° NNW 22:54:10 42° NE 22:54:40 39° ENE
Cosmos 2151 2.9 22:54:01 48° SSE 22:55:04 70° E 22:59:22 10° NNE
Cosmos 1814 Rocket 4.0 22:50:44 10° NNW 22:56:06 81° WSW 22:58:11 38° S
CARTOSAT-1 3.5 22:55:32 47° SSE 22:56:45 88° ENE 23:01:05 10° NNW
Meteor 1-27 4.3 22:52:23 10° N 22:58:13 72° E 23:00:29 38° SSE
RESURS DK-1 2.7 22:54:17 10° NNW 22:58:23 58° WSW 22:59:21 45° SSW
SPOT 1/Viking Rocket 4.3 22:56:35 23° SSW 22:59:23 44° W 23:04:19 10° NNW
Cosmos 1486 Rocket 3.9 22:57:03 28° SSW 22:59:52 86° ESE 23:05:12 10° NNE
Spot 4 4.3 23:00:17 38° ESE 23:01:39 49° ENE 23:06:20 10° N
Cosmos 1805 Rocket 4.5 23:05:44 31° E 23:05:44 31° E 23:09:32 10° NNE
Cosmos 2233 Rocket 3.9 23:02:27 10° N 23:08:42 90° NE 23:11:20 37° S
Cosmos 304 Rocket 4.5 23:04:47 10° N 23:09:20 41° ENE 23:10:27 35° E
Cosmos 841 Rocket 3.4 23:04:24 10° NNW 23:09:42 82° ENE 23:11:13 47° SSE
Cosmos 2228 Rocket 4.0 23:08:24 10° NNW 23:12:47 44° W 23:14:28 31° SW
Cosmos 1763 Rocket 3.5 23:08:02 10° NNW 23:13:09 73° WSW 23:14:35 46° S
Cosmos 1515 Rocket 4.1 23:10:40 10° NNW 23:14:53 51° W 23:16:02 39° SW
H-2A R/B 2.1 23:17:20 55° SSW 23:18:09 70° WSW 23:22:26 10° NNW
Cosmos 1151 Rocket 3.5 23:19:39 10° NNW 23:23:56 54° W 23:24:51 45° SW
Cosmos 1300 4.5 23:20:51 10° NW 23:23:57 24° W 23:25:01 21° WSW
Cosmos 2263 Rocket 2.1 23:21:44 34° SSW 23:24:14 88° WNW 23:29:51 10° NNE
Cosmos 1626 2.2 23:25:43 65° W 23:25:51 66° W 23:29:34 10° N
SL-19 R/B 4.4 23:22:50 10° N 23:28:07 67° WNW 23:30:50 30° SW
Cosmos 836 Rocket 4.5 23:28:16 10° NNW 23:33:35 75° ENE 23:34:41 56° SE
Lacrosse 5 2.4 23:33:04 10° WNW 23:37:49 42° SW 23:38:08 41° SW
H-2A R/B 4.2 23:41:24 13° SW 23:44:08 19° W 23:47:52 10° NW
Cosmos 1503 Rocket 4.1 23:43:59 46° SW 23:45:31 73° WNW 23:50:42 10° NNE
Cosmos 2285 Rocket 3.9 23:42:30 10° NNW 23:48:52 83° WSW 23:50:38 51° S
Abrixas rocket 4.0 23:45:53 10° WNW 23:47:34 28° WNW 23:47:34 28° WNW
Cosmos 1869 3.6 23:46:49 10° N 23:50:18 60° NE 23:50:18 60° NE
CZ-4C R/B 3.6 23:53:11 63° WSW 23:53:12 63° W 23:57:31 10° NNW
